Weather History for K08D - September, 2012

Change the Weather History Date:

Thursday, September 6, 2012

  Actual Average (KMOT) Record (KMOT)
Temperature  
Mean Temperature 56 °F 62 °F  
Max Temperature 66 °F 74 °F 101 °F (1976)
Min Temperature 46 °F 50 °F 28 °F (1929)
Degree Days  
Heating Degree Days 9 5  
Month to date heating degree days 26  
Since 1 July heating degree days 97  
Cooling Degree Days 0 2  
Month to date cooling degree days 13  
Year to date cooling degree days 424  
Growing Degree Days 6 (Base 50)    
Moisture  
Dew Point 45 °F    
Average Humidity 63    
Maximum Humidity 88    
Minimum Humidity 40    
Precipitation  
Precipitation 0.00 in 0.05 in 1.64 in (2010)
Month to date precipitation 0.31  
Year to date precipitation 13.75  
Sea Level Pressure  
Sea Level Pressure 30.02 in    
Wind  
Wind Speed 7 mph (North)    
Max Wind Speed 18 mph    
Max Gust Speed 23 mph    
Visibility 10 miles    
Events      
T = Trace of Precipitation, MM = Missing Value Source: NWS Daily Summary

Daily Weather History Graph

Daily Weather History Graph

Search for Another Location

Airport or City:

Trip Planner

Search our weather history database for the weather conditions in past years. The results will help you decide how hot, cold, wet, or windy it might be!

Date:

Astronomy

Sep. 06, 2012 Rise Set
Actual Time 7:14 AM CDT 8:19 PM CDT
Civil Twilight 6:42 AM CDT 8:51 PM CDT
Nautical Twilight 6:04 AM CDT 9:29 PM CDT
Astronomical Twilight 5:23 AM CDT 10:10 PM CDT
Moon 10:58 PM CDT (9/6) 1:48 PM CDT (9/6)
Length of Visible Light 14h 08m
Length of Day
13h 04m
Waning Gibbous, 67% of the Moon is Illuminated
Sep 6
Waning Gibbous
Sep 8
Last Quarter
Sep 15
New
Sep 22
First Quarter
Sep 29
Full

Hourly Weather History & Observations

Time (CDT) Temp. Windchill Dew Point Humidity Pressure Visibility Wind Dir Wind Speed Gust Speed Precip Events Conditions
12:15 AM 57.2 °F - 42.8 °F 59% 29.95 in 10.0 mi NE 4.6 mph - N/A   Mostly Cloudy
12:35 AM 57.2 °F - 44.6 °F 63% 29.95 in 10.0 mi NNE 3.5 mph - N/A   Mostly Cloudy
12:55 AM 55.4 °F - 44.6 °F 67% 29.95 in 10.0 mi NNE 8.1 mph - N/A   Unknown
1:15 AM 57.2 °F - 44.6 °F 63% 29.95 in 10.0 mi Calm Calm - N/A   Overcast
1:55 AM 55.4 °F - 46.4 °F 72% 29.97 in 10.0 mi SW 3.5 mph - N/A   Overcast
2:15 AM 55.4 °F - 46.4 °F 72% 29.97 in 10.0 mi NW 4.6 mph - N/A   Overcast
2:35 AM 55.4 °F - 46.4 °F 72% 29.96 in 10.0 mi North 6.9 mph - N/A   Overcast
2:55 AM 57.2 °F - 46.4 °F 67% 29.96 in 10.0 mi North 6.9 mph - N/A   Overcast
3:15 AM 55.4 °F - 46.4 °F 72% 29.96 in 10.0 mi North 6.9 mph - N/A   Overcast
3:35 AM 55.4 °F - 48.2 °F 77% 29.97 in 10.0 mi NNE 3.5 mph - N/A   Unknown
3:55 AM 55.4 °F - 46.4 °F 72% 29.97 in 10.0 mi North 3.5 mph - N/A   Overcast
4:15 AM 55.4 °F - 46.4 °F 72% 29.97 in 10.0 mi NNE 4.6 mph - N/A   Unknown
4:35 AM 55.4 °F - 46.4 °F 72% 29.97 in 10.0 mi North 6.9 mph - N/A   Unknown
4:55 AM 53.6 °F - 46.4 °F 77% 29.97 in 10.0 mi NNE 5.8 mph - N/A   Unknown
5:15 AM 55.4 °F - 48.2 °F 77% 29.97 in 10.0 mi NNE 3.5 mph - N/A   Overcast
5:35 AM 53.6 °F - 46.4 °F 77% 29.98 in 10.0 mi Calm Calm - N/A   Overcast
5:55 AM 53.6 °F - 46.4 °F 77% 29.98 in 10.0 mi North 3.5 mph - N/A   Overcast
6:15 AM 53.6 °F - 48.2 °F 82% 29.98 in 10.0 mi Calm Calm - N/A   Overcast
6:35 AM 53.6 °F - 48.2 °F 82% 29.98 in 10.0 mi Calm Calm - N/A   Overcast
6:55 AM 51.8 °F - 48.2 °F 88% 29.99 in 10.0 mi SSW 3.5 mph - N/A   Unknown
7:15 AM 51.8 °F - 48.2 °F 88% 29.99 in 10.0 mi WSW 3.5 mph - N/A   Unknown
7:35 AM 50.0 °F - 46.4 °F 87% 29.99 in 10.0 mi Calm Calm - N/A   Mostly Cloudy
7:55 AM 51.8 °F - 48.2 °F 88% 30.00 in 10.0 mi Calm Calm - N/A   Mostly Cloudy
8:15 AM 53.6 °F - 48.2 °F 82% 30.00 in 10.0 mi Calm Calm - N/A   Overcast
8:35 AM 53.6 °F - 50.0 °F 88% 29.99 in 10.0 mi Calm Calm - N/A   Mostly Cloudy
8:55 AM 55.4 °F - 50.0 °F 82% 30.00 in 10.0 mi WNW 4.6 mph - N/A   Mostly Cloudy
9:15 AM 57.2 °F - 48.2 °F 72% 30.00 in 10.0 mi NW 8.1 mph - N/A   Mostly Cloudy
9:55 AM 57.2 °F - 48.2 °F 72% 30.00 in 10.0 mi NW 8.1 mph - N/A   Mostly Cloudy
10:15 AM 59.0 °F - 48.2 °F 67% 30.00 in 10.0 mi NW 6.9 mph - N/A   Partly Cloudy
10:35 AM 62.6 °F - 48.2 °F 59% 30.00 in 10.0 mi NW 10.4 mph - N/A   Clear
10:55 AM 62.6 °F - 46.4 °F 55% 30.00 in 10.0 mi NW 11.5 mph 16.1 mph N/A   Clear
11:15 AM 64.4 °F - 46.4 °F 52% 30.00 in 10.0 mi NNW 15.0 mph - N/A   Clear
11:35 AM 64.4 °F - 46.4 °F 52% 30.00 in 10.0 mi NW 11.5 mph 16.1 mph N/A   Clear
11:55 AM 64.4 °F - 48.2 °F 56% 30.01 in 10.0 mi NW 13.8 mph 19.6 mph N/A   Scattered Clouds
12:15 PM 64.4 °F - 48.2 °F 56% 30.01 in 10.0 mi North 13.8 mph 18.4 mph N/A   Scattered Clouds
12:35 PM 66.2 °F - 46.4 °F 49% 30.01 in 10.0 mi NNW 11.5 mph 18.4 mph N/A   Partly Cloudy
12:55 PM 66.2 °F - 46.4 °F 49% 30.01 in 10.0 mi North 9.2 mph 18.4 mph N/A   Partly Cloudy
1:15 PM 66.2 °F - 46.4 °F 49% 30.01 in 10.0 mi NNW 11.5 mph 20.7 mph N/A   Partly Cloudy
1:35 PM 66.2 °F - 44.6 °F 46% 30.01 in 10.0 mi NNE 11.5 mph 19.6 mph N/A   Scattered Clouds
1:55 PM 66.2 °F - 46.4 °F 49% 30.01 in 10.0 mi North 11.5 mph 18.4 mph N/A   Scattered Clouds
2:15 PM 66.2 °F - 48.2 °F 52% 30.02 in 10.0 mi North 15.0 mph 21.9 mph N/A   Scattered Clouds
2:35 PM 64.4 °F - 46.4 °F 52% 30.02 in 10.0 mi North 9.2 mph - N/A   Mostly Cloudy
2:55 PM 64.4 °F - 46.4 °F 52% 30.02 in 10.0 mi North 13.8 mph - N/A   Mostly Cloudy
3:15 PM 64.4 °F - 46.4 °F 52% 30.02 in 10.0 mi North 11.5 mph 18.4 mph N/A   Mostly Cloudy
3:35 PM 64.4 °F - 46.4 °F 52% 30.02 in 10.0 mi NNE 13.8 mph - N/A   Mostly Cloudy
3:55 PM 64.4 °F - 46.4 °F 52% 30.03 in 10.0 mi North 18.4 mph 23.0 mph N/A   Mostly Cloudy
4:15 PM 66.2 °F - 46.4 °F 49% 30.03 in 10.0 mi NNW 13.8 mph 20.7 mph N/A   Mostly Cloudy
4:35 PM 64.4 °F - 44.6 °F 49% 30.03 in 10.0 mi North 16.1 mph 21.9 mph N/A   Mostly Cloudy
4:55 PM 64.4 °F - 44.6 °F 49% 30.03 in 10.0 mi North 18.4 mph 21.9 mph N/A   Mostly Cloudy
5:15 PM 64.4 °F - 42.8 °F 45% 30.04 in 10.0 mi NNW 11.5 mph 16.1 mph N/A   Scattered Clouds
5:35 PM 64.4 °F - 41.0 °F 42% 30.04 in 10.0 mi NNW 15.0 mph - N/A   Partly Cloudy
5:55 PM 64.4 °F - 41.0 °F 42% 30.04 in 10.0 mi North 15.0 mph 21.9 mph N/A   Scattered Clouds
6:15 PM 64.4 °F - 41.0 °F 42% 30.04 in 10.0 mi North 15.0 mph - N/A   Partly Cloudy
6:35 PM 64.4 °F - 39.2 °F 40% 30.05 in 10.0 mi NNW 11.5 mph 18.4 mph N/A   Scattered Clouds
6:55 PM 62.6 °F - 39.2 °F 42% 30.06 in 10.0 mi North 15.0 mph - N/A   Mostly Cloudy
7:15 PM 60.8 °F - 39.2 °F 45% 30.07 in 10.0 mi North 16.1 mph - N/A   Scattered Clouds
7:35 PM 59.0 °F - 39.2 °F 48% 30.07 in 10.0 mi North 16.1 mph 20.7 mph N/A   Partly Cloudy
7:55 PM 57.2 °F - 39.2 °F 51% 30.08 in 10.0 mi North 17.3 mph - N/A   Clear
8:15 PM 55.4 °F - 39.2 °F 54% 30.09 in 10.0 mi North 10.4 mph - N/A   Clear
8:35 PM 53.6 °F - 39.2 °F 58% 30.10 in 10.0 mi North 11.5 mph - N/A   Clear
8:55 PM 51.8 °F - 39.2 °F 62% 30.11 in 10.0 mi North 9.2 mph - N/A   Clear
9:15 PM 50.0 °F - 39.2 °F 66% 30.12 in 10.0 mi North 8.1 mph - N/A   Unknown
9:35 PM 48.2 °F - 39.2 °F 71% 30.12 in 10.0 mi North 8.1 mph - N/A   Unknown
9:55 PM 48.2 °F - 39.2 °F 71% 30.13 in 10.0 mi North 9.2 mph - N/A   Unknown
10:15 PM 46.4 °F 41.9 °F 39.2 °F 76% 30.13 in 10.0 mi North 9.2 mph - N/A   Unknown
10:35 PM 48.2 °F - 39.2 °F 71% 30.14 in 10.0 mi North 11.5 mph - N/A   Clear
10:55 PM 48.2 °F - 39.2 °F 71% 30.14 in 10.0 mi North 10.4 mph - N/A   Clear
11:15 PM 48.2 °F - 39.2 °F 71% 30.15 in 10.0 mi NNW 10.4 mph - N/A   Clear
11:35 PM 46.4 °F 41.9 °F 39.2 °F 76% 30.15 in 10.0 mi North 9.2 mph - N/A   Unknown
11:55 PM 46.4 °F 41.9 °F 39.2 °F 76% 30.15 in 10.0 mi North 9.2 mph - N/A   Unknown